Погода во Вроцлаве

Польша     51°06′40″N   17°02′18″E
темп.,
°C
ветер,
м/с
пор.,
м/с
влажн.,
%
обл.,
%
осадки,
мм/ч
давл.,
гПа
погр.,
м
5 августа, чт
чт523:00+18всв1169100 0.0 101317
02:00+16ююв1176100 0.0 101214
05:00+16вюв1277100 0.0 101123
08:00+16юв2279100 0.1 1010182
11:00+16вюв2389100 2.1 1010274
14:00+16св2590100 6.0 1010488
17:00+15ссв3792100 2.2 1009535
20:00+14с3794100 2.4 1008373
6 августа, пт
пт623:00+14сз4794100 0.1 1008347
02:00+14ссз3795100 0.4 1008279
05:00+14сз3795100 1.6 1007274
08:00+14сз3692100 2.2 1008216
11:00+16зюз238466 0.0 1008243
14:00+23ссз12514 0.1 10071441
17:00+23юв1249100 0.1 10071231
20:00+20ююв236768 0.1 100745
7 августа, сб
сб723:00+16з35795 0.0 100868
02:00+16зюз22820 0.0 100929
05:00+15зюз22841 0.0 100926
08:00+19зюз237131 0.0 1010265
11:00+23юз235529 0.0 10101226
14:00+25юз354390 0.0 10091689
17:00+27ююз3541100 0.0 10071763
20:00+23вюв335996 0.0 100723
8 августа, вс
вс823:00+20вюв41266100 0.0 1006265
02:00+18юв4117264 0.0 1005241
05:00+17зсз8158080 0.0 1008638
08:00+19з7117192 0.0 1012928
11:00+22зсз575038 0.0 10121315
14:00+25зсз3442100 0.0 10131914
17:00+24зсз3648100 0.0 1014504
20:00+21зсз4858100 0.0 1015341
9 августа, пн
пн923:00+18юз5962100 0.0 1018357
02:00+15зюз34751 0.0 101878
05:00+14зюз23840 0.0 101957
08:00+17зюз36670 0.0 1020401
11:00+22з45465 0.0 10201502
14:00+24зюз343791 0.0 10202408
17:00+23зсз3443100 0.0 1019781
20:00+21зсз3548100 0.0 102097